Location: ActonStarParty
(42.4766°N, 71.4538°W)
Time: 09:50:05
(UTC-04:00)

Amateur Radio Satellites - All Passes

Search period start: 24 August 2016 09:20
Search period end: 25 August 2016 09:20
Location: ActonStarParty, 42.4766°N, 71.4538°W

Satellite Date Start Highest point End Downlink Frequencies (MHz)
Time Altitude Azimuth
HO-68 24 Aug 09:30:37 09:37:42 64° 291° (WNW) 09:44:43 435.675
ZACube-1 24 Aug 09:36:20 09:40:17 39° 98° (E) 09:44:10 437.345
DELFI C3 24 Aug 09:46:55 09:50:02 22° 94° (E) 09:53:09 145.870
Cosmos 2504 24 Aug 09:49:12 09:56:02 27° 292° (WNW) 10:02:35 435.465 / 435.565
TIGRISAT 24 Aug 09:49:30 09:53:56 46° 72° (ENE) 09:58:18 435.000
CINEMA 3 24 Aug 09:59:08 10:02:02 17° 297° (WNW) 10:04:50 145.822/145.860
SEEDS 24 Aug 10:01:39 10:04:57 23° 293° (WNW) 10:08:16 437.485
QB50P1 24 Aug 10:06:31 10:07:51 11° 61° (ENE) 10:09:11 145.935-145.965
BEESAT 3 24 Aug 10:09:08 10:12:19 24° 114° (ESE) 10:15:33 437.485
SO-50 24 Aug 10:09:19 10:13:38 41° 243° (WSW) 10:17:49 436.795
CUSAT 1 24 Aug 10:09:35 10:15:05 38° 75° (ENE) 10:21:46 437.405
POPSAT HIP 1 24 Aug 10:15:11 10:17:23 14° 63° (ENE) 10:19:34 437.405
UNISAT 6 24 Aug 10:16:32 10:21:12 87° 258° (WSW) 10:25:47 437.425
CANX-2 24 Aug 10:16:44 10:17:56 11° 298° (WNW) 10:19:10 2200.000
ISS 24 Aug 10:21:18 10:24:31 60° 142° (SE) 10:27:45 145.825
CUTE 1.7 + AOD 2 24 Aug 10:23:51 10:24:51 11° 299° (WNW) 10:25:51 437.475
DANDE 24 Aug 10:29:24 10:32:58 19° 73° (ENE) 10:37:12 436.750
AIST 1 24 Aug 10:39:58 10:43:52 32° 285° (WNW) 10:47:50
QB50P2 24 Aug 10:42:49 10:46:29 28° 68° (ENE) 10:50:09 145.880/145.840
CUBEBUG 2 24 Aug 10:43:52 10:46:38 17° 296° (WNW) 10:49:22 437.445
AAUSAT CUBESAT 2 24 Aug 10:45:12 10:47:30 15° 296° (WNW) 10:49:48 437.432
POLYITAN 1 24 Aug 10:45:20 10:49:01 29° 69° (ENE) 10:52:43 437.675
DUCHIFAT 1 24 Aug 10:46:08 10:49:39 26° 68° (ENE) 10:53:10 145.980
RS-15 24 Aug 10:46:52 10:59:19 75° 53° (NE) 11:11:31 29.354- 29.394
UWE-3 24 Aug 10:49:35 10:52:45 21° 294° (WNW) 10:55:52 435.000/436.395/437.385
COMPASS 1 24 Aug 10:50:24 10:51:25 11° 298° (WNW) 10:52:26 437.405
Oscar 11 24 Aug 10:51:28 10:55:13 30° 291° (WNW) 10:58:59 145.826/435.025
FUNcube-1 24 Aug 10:53:33 10:57:11 29° 291° (WNW) 11:00:46 145.935
ANTELSAT 24 Aug 10:54:12 10:58:28 36° 263° (W) 11:02:41 437.575/2403.000
HUMSAT D 24 Aug 10:57:26 11:01:30 67° 101° (E) 11:05:33 437.325/437.525
NANOSAT C BR1 24 Aug 10:57:29 11:01:23 36° 70° (ENE) 11:05:18 145.865
ZACube-1 24 Aug 11:13:25 11:16:16 18° 295° (WNW) 11:19:05 437.345
Cosmos 2499 24 Aug 11:14:08 11:19:02 17° 79° (E) 11:23:43 435.465 / 435.565
GONETS M04 24 Aug 11:16:34 11:23:23 26° 81° (E) 11:30:14
BEESAT 2 24 Aug 11:19:34 11:23:30 75° 121° (ESE) 11:27:28 435.950
HO-68 24 Aug 11:20:55 11:24:03 13° 311° (NW) 11:27:10 435.675
DELFI C3 24 Aug 11:21:25 11:24:53 29° 290° (WNW) 11:28:21 145.870
TIGRISAT 24 Aug 11:27:37 11:30:49 18° 268° (W) 11:34:00 435.000
JAS-2 24 Aug 11:35:38 11:40:30 44° 69° (ENE) 11:45:38 435.910
QB50P1 24 Aug 11:38:44 11:43:01 75° 258° (WSW) 11:47:19 145.935-145.965
AUBIESAT-1 24 Aug 11:43:28 11:47:28 42° 103° (ESE) 11:51:08 437.475
PCSat 24 Aug 11:43:54 11:47:44 20° 106° (ESE) 11:51:34 145.827
50 SAT 24 Aug 11:44:08 11:46:28 16° 93° (E) 11:48:48 437.505
M-CUBED/EXP-1 PRIME 24 Aug 11:45:33 11:49:47 57° 105° (ESE) 11:53:39 437.505
BEESAT 3 24 Aug 11:46:21 11:49:52 31° 311° (NW) 11:53:26 437.485
VELOX 1 24 Aug 11:47:14 11:50:34 20° 93° (E) 11:53:54 145.980
POPSAT HIP 1 24 Aug 11:48:26 11:52:40 59° 260° (W) 11:56:55 437.405
CUSAT 1 24 Aug 11:51:30 11:57:04 39° 266° (W) 12:03:48 437.405
BUGSAT 1 24 Aug 11:56:51 12:01:04 66° 74° (ENE) 12:05:17 437.445
ISS 24 Aug 11:58:20 12:01:08 26° 340° (NNW) 12:03:57 145.825
CUBEBUG 1 24 Aug 11:59:09 12:03:11 33° 97° (E) 12:07:10 437.445
ESTCUBE 1 24 Aug 12:10:24 12:14:56 68° 102° (ESE) 12:19:26 437.505/2401.250
DANDE 24 Aug 12:10:53 12:15:45 58° 263° (W) 12:22:11 436.750
Gurwin Techsat 1B 24 Aug 12:14:49 12:16:17 11° 56° (NE) 12:17:45 435.225
DX 1 24 Aug 12:17:31 12:21:20 28° 96° (E) 12:25:07 434.975-435.025
QB50P2 24 Aug 12:18:38 12:22:14 26° 265° (W) 12:25:51 145.880/145.840
POLYITAN 1 24 Aug 12:21:11 12:24:47 26° 265° (W) 12:28:23 437.675
DUCHIFAT 1 24 Aug 12:21:32 12:25:14 29° 264° (W) 12:28:57 145.980
NANOSAT C BR1 24 Aug 12:34:01 12:37:13 20° 266° (W) 12:40:25 145.865
AISAT 24 Aug 12:34:57 12:39:26 70° 102° (ESE) 12:43:52 437.250
SPROUT 24 Aug 12:35:05 12:38:59 33° 97° (E) 12:42:51 437.525
HUMSAT D 24 Aug 12:35:20 12:36:34 11° 298° (WNW) 12:37:48 437.325/437.525
AIST 2 24 Aug 12:58:25 13:02:07 34° 116° (ESE) 13:05:53 435.215
BEESAT 2 24 Aug 12:59:36 13:01:49 14° 320° (NW) 13:04:03 435.950
RS-15 24 Aug 13:00:20 13:10:49 35° 256° (WSW) 13:21:08 29.354- 29.394
Cosmos 2499 24 Aug 13:02:49 13:11:10 89° 276° (W) 13:18:54 435.465 / 435.565
UKube-1 24 Aug 13:05:04 13:09:26 74° 103° (ESE) 13:13:45 .
TISAT 1 24 Aug 13:09:07 13:11:54 17° 92° (E) 13:14:39 437.305
Oscar 19 24 Aug 13:10:23 13:15:30 71° 73° (ENE) 13:20:41 437.125/150
GONETS M04 24 Aug 13:10:42 13:19:23 68° 281° (W) 13:28:12
50 SAT 24 Aug 13:16:53 13:20:09 32° 289° (WNW) 13:23:25 437.505
AUBIESAT-1 24 Aug 13:18:40 13:21:33 18° 302° (WNW) 13:24:17 437.475
M-CUBED/EXP-1 PRIME 24 Aug 13:21:17 13:23:45 15° 304° (NW) 13:26:07 437.505
JAS-2 24 Aug 13:21:58 13:25:56 22° 268° (W) 13:30:01 435.910
VELOX 1 24 Aug 13:23:00 13:27:10 39° 290° (WNW) 13:31:18 145.980
PCSat 24 Aug 13:25:17 13:30:38 60° 303° (WNW) 13:36:01 145.827
BUGSAT 1 24 Aug 13:35:36 13:36:51 11° 271° (W) 13:38:06 437.445
CUBEBUG 1 24 Aug 13:35:44 13:39:18 24° 293° (WNW) 13:42:51 437.445
ISS 24 Aug 13:36:12 13:38:22 16° 0° (N) 13:40:31 145.825
ESTCUBE 1 24 Aug 13:48:56 13:51:10 14° 299° (WNW) 13:53:25 437.505/2401.250
Gurwin Techsat 1B 24 Aug 13:50:01 13:55:18 76° 74° (ENE) 14:00:39 435.225
DX 1 24 Aug 13:53:43 13:57:26 27° 293° (WNW) 14:01:08 434.975-435.025
SWISSCUBE 24 Aug 14:03:53 14:06:37 15° 91° (E) 14:09:21 437.505
AO-85 24 Aug 14:07:41 14:11:08 22° 42° (NE) 14:14:21 145.980
SPROUT 24 Aug 14:11:24 14:14:45 22° 293° (WNW) 14:18:04 437.525
AISAT 24 Aug 14:13:16 14:15:20 13° 299° (WNW) 14:17:22 437.250
AO-7 24 Aug 14:16:07 14:23:32 37° 58° (ENE) 14:30:56 29.400- 29.500
ITAMSAT 1 24 Aug 14:16:29 14:21:21 42° 69° (ENE) 14:26:14 435.822/435.867
O/OREOS (USA 219) 24 Aug 14:17:32 14:21:38 36° 106° (ESE) 14:25:47 437.305
BEESAT 24 Aug 14:20:50 14:24:21 20° 93° (E) 14:27:51 436.000
AIST 2 24 Aug 14:37:11 14:40:39 26° 314° (NW) 14:44:10 435.215
UKube-1 24 Aug 14:43:17 14:44:52 12° 300° (WNW) 14:46:27 .
TISAT 1 24 Aug 14:43:45 14:47:44 41° 289° (WNW) 14:51:41 437.305
Oscar 19 24 Aug 14:52:37 14:55:20 14° 270° (W) 14:58:04 437.125/150
Cosmos 2499 24 Aug 15:00:05 15:05:17 18° 297° (WNW) 15:10:17 435.465 / 435.565
ITUPSAT 1 24 Aug 15:04:52 15:09:34 55° 101° (E) 15:14:14 437.325
ISS 24 Aug 15:12:42 15:15:34 27° 20° (NNE) 15:18:25 145.825
PCSat 24 Aug 15:12:46 15:15:12 13° 325° (NW) 15:17:38 145.827
GONETS M04 24 Aug 15:13:48 15:18:08 14° 304° (NW) 15:22:31
KKS-1 24 Aug 15:30:52 15:32:13 11° 89° (E) 15:33:34 437.445
Gurwin Techsat 1B 24 Aug 15:33:12 15:35:50 14° 271° (W) 15:38:28 435.225
SWISSCUBE 24 Aug 15:40:06 15:44:47 59° 287° (WNW) 15:49:27 437.505
AO-85 24 Aug 15:47:45 15:51:47 43° 243° (WSW) 15:55:32 145.980
HORYU 2 24 Aug 15:50:57 15:54:00 18° 64° (ENE) 15:57:03 437.375
ITAMSAT 1 24 Aug 15:56:48 16:00:58 24° 266° (W) 16:05:10 435.822/435.867
O/OREOS (USA 219) 24 Aug 15:57:30 16:01:08 24° 304° (WNW) 16:04:48 437.305
BEESAT 24 Aug 15:57:49 16:02:20 44° 290° (WNW) 16:06:50 436.000
AO-7 24 Aug 16:07:50 16:15:59 55° 258° (WSW) 16:24:10 29.400- 29.500
STARS 24 Aug 16:15:41 16:18:34 17° 92° (E) 16:21:26 437.465
BRITE-PL 24 Aug 16:19:54 16:22:39 15° 59° (ENE) 16:25:29 437.365/2234.400
CUTE-I 24 Aug 16:33:10 16:35:04 12° 56° (ENE) 16:36:57 437.470
NOAA 18 24 Aug 16:41:07 16:43:55 14° 57° (ENE) 16:46:44 137.9125
MOZHAYETS 4 24 Aug 16:43:44 16:48:20 90° 205° (SSW) 16:52:54
ITUPSAT 1 24 Aug 16:43:48 16:46:58 18° 298° (WNW) 16:50:07 437.325
NOAA 15 24 Aug 16:44:34 16:48:10 19° 61° (ENE) 16:51:47 137.62
ISS 24 Aug 16:48:57 16:52:09 53° 219° (SW) 16:55:19 145.825
Cosmos 2491 24 Aug 16:54:41 16:58:56 15° 74° (ENE) 17:03:11 435.465 / 435.565
KKS-1 24 Aug 17:04:48 17:09:16 71° 286° (WNW) 17:13:41 437.445
YUBILEINY 24 Aug 17:09:31 17:17:46 42° 72° (ENE) 17:25:53 435.215
HORYU 2 24 Aug 17:25:54 17:30:13 46° 260° (W) 17:34:32 437.375
Cosmos 2504 24 Aug 17:46:44 17:52:15 22° 65° (ENE) 17:57:38 435.465 / 435.565
GOMX 1 24 Aug 17:50:12 17:55:00 49° 71° (ENE) 18:00:07 467.674
STARS 24 Aug 17:50:56 17:55:10 45° 289° (WNW) 17:59:20 437.465
CUBESAT XI-V 24 Aug 17:53:46 17:58:26 63° 101° (E) 18:03:06 437.345
BRITE-PL 24 Aug 17:55:43 18:00:24 71° 259° (W) 18:05:32 437.365/2234.400
Cubesat XI-IV 24 Aug 17:55:56 18:01:12 62° 72° (ENE) 18:06:28 437.490
LilacSat-2 24 Aug 18:05:29 18:09:19 72° 76° (ENE) 18:13:10 437.200
CUTE-I 24 Aug 18:08:54 18:14:14 81° 74° (ENE) 18:19:36 437.470
HO-68 24 Aug 18:14:08 18:19:20 22° 56° (NE) 18:24:33 435.675
DOVE 4 24 Aug 18:15:14 18:20:00 41° 70° (ENE) 18:24:57 437.250
NOAA 18 24 Aug 18:18:13 18:23:47 90° 71° (ENE) 18:29:22 137.9125
NOAA 15 24 Aug 18:22:17 18:27:27 61° 258° (WSW) 18:32:42 137.62
MOZHAYETS 4 24 Aug 18:23:59 18:24:46 10° 301° (WNW) 18:25:33
BEESAT 3 24 Aug 18:25:22 18:28:27 21° 45° (NE) 18:31:31 437.485
Cosmos 2491 24 Aug 18:45:30 18:54:11 77° 94° (E) 19:02:56 435.465 / 435.565
YUBILEINY 24 Aug 19:06:26 19:14:34 45° 273° (W) 19:22:38 435.215
SEEDS 24 Aug 19:18:15 19:21:35 24° 68° (ENE) 19:24:55 437.485
CINEMA 3 24 Aug 19:22:00 19:26:52 54° 73° (ENE) 19:31:46 145.822/145.860
STRAND 1 24 Aug 19:24:59 19:29:27 30° 96° (E) 19:33:52 437.568
GOMX 1 24 Aug 19:29:40 19:33:23 21° 270° (W) 19:37:17 467.674
CANX-2 24 Aug 19:31:33 19:35:39 54° 74° (ENE) 19:39:46 2200.000
CUBESAT XI-V 24 Aug 19:32:37 19:35:18 15° 298° (WNW) 19:37:59 437.345
BEESAT 2 24 Aug 19:36:57 19:40:53 53° 53° (NE) 19:44:48 435.950
Cubesat XI-IV 24 Aug 19:38:10 19:41:40 18° 269° (W) 19:45:11 437.490
CUTE 1.7 + AOD 2 24 Aug 19:38:22 19:42:28 56° 74° (ENE) 19:46:36 437.475
Cosmos 2504 24 Aug 19:39:06 19:46:19 67° 267° (W) 19:53:23 435.465 / 435.565
CUTE-I 24 Aug 19:52:31 19:54:54 13° 271° (W) 19:57:16 437.470
DOVE 4 24 Aug 19:53:36 19:57:48 26° 268° (W) 20:02:09 437.250
HO-68 24 Aug 19:59:03 20:06:16 80° 255° (WSW) 20:13:31 435.675
AAUSAT CUBESAT 2 24 Aug 19:59:09 20:02:54 36° 71° (ENE) 20:06:41 437.432
BEESAT 3 24 Aug 20:02:32 20:06:17 41° 243° (WSW) 20:10:00 437.485
NOAA 18 24 Aug 20:03:07 20:05:09 12° 271° (W) 20:07:11 137.9125
COMPASS 1 24 Aug 20:03:22 20:07:21 51° 74° (ENE) 20:11:23 437.405
CUBEBUG 2 24 Aug 20:04:15 20:08:42 42° 72° (ENE) 20:13:05 437.445
UWE-3 24 Aug 20:09:46 20:13:52 33° 70° (ENE) 20:17:55 435.000/436.395/437.385
Oscar 11 24 Aug 20:11:12 20:14:28 21° 66° (ENE) 20:17:43 145.826/435.025
FUNcube-1 24 Aug 20:13:40 20:17:05 22° 67° (ENE) 20:20:27 145.935
PCSat 24 Aug 20:29:48 20:34:00 22° 44° (NE) 20:38:12 145.827
ZACube-1 24 Aug 20:32:20 20:36:26 36° 70° (ENE) 20:40:28 437.345
DELFI C3 24 Aug 20:34:22 20:36:33 15° 64° (ENE) 20:38:45 145.870
Cosmos 2491 24 Aug 20:45:17 20:52:00 24° 296° (WNW) 20:58:46 435.465 / 435.565
AIST 1 24 Aug 20:45:39 20:50:02 62° 80° (E) 20:54:23
PRISM 24 Aug 20:46:30 20:49:42 21° 94° (E) 20:52:53 437.425
SEEDS 24 Aug 20:53:31 20:57:09 29° 264° (W) 21:00:49 437.485
M-CUBED/EXP-1 PRIME 24 Aug 21:00:41 21:02:11 11° 53° (NE) 21:03:41 437.505
CINEMA 3 24 Aug 21:00:51 21:04:18 18° 269° (W) 21:07:45 145.822/145.860
STRAND 1 24 Aug 21:04:03 21:08:37 34° 293° (WNW) 21:13:11 437.568
CANX-2 24 Aug 21:09:53 21:11:50 13° 270° (W) 21:13:47 2200.000
BEESAT 2 24 Aug 21:16:05 21:18:17 14° 250° (WSW) 21:20:28 435.950
CUTE 1.7 + AOD 2 24 Aug 21:16:51 21:18:40 12° 270° (W) 21:20:29 437.475
AIST 2 24 Aug 21:18:53 21:22:36 30° 48° (NE) 21:26:20 435.215
GONETS M04 24 Aug 21:26:07 21:30:02 13° 55° (NE) 21:33:56
AAUSAT CUBESAT 2 24 Aug 21:35:37 21:38:29 18° 267° (W) 21:41:24 437.432
COMPASS 1 24 Aug 21:41:15 21:43:14 13° 270° (W) 21:45:13 437.405
CUBEBUG 2 24 Aug 21:41:57 21:45:27 20° 267° (W) 21:48:56 437.445
Oscar 11 24 Aug 21:46:25 21:50:22 35° 263° (W) 21:54:21 145.826/435.025
UWE-3 24 Aug 21:46:31 21:50:20 25° 265° (W) 21:54:07 435.000/436.395/437.385
FUNcube-1 24 Aug 21:48:57 21:53:06 37° 262° (W) 21:57:12 145.935
HUMSAT D 24 Aug 21:48:58 21:53:00 49° 73° (ENE) 21:57:01 437.325/437.525
HO-68 24 Aug 21:51:37 21:55:01 14° 273° (W) 21:58:26 435.675
DELFI C3 24 Aug 22:07:15 22:11:01 45° 261° (W) 22:14:50 145.870
UNISAT 6 24 Aug 22:08:48 22:11:43 18° 92° (E) 22:14:36 437.425
ZACube-1 24 Aug 22:09:17 22:12:47 22° 266° (W) 22:16:15 437.345
PCSat 24 Aug 22:12:30 22:17:54 66° 244° (WSW) 22:23:14 145.827
PRISM 24 Aug 22:21:18 22:25:04 33° 291° (WNW) 22:28:49 437.425
AIST 1 24 Aug 22:25:32 22:27:02 12° 277° (W) 22:28:32
AUBIESAT-1 24 Aug 22:28:43 22:33:16 63° 69° (ENE) 22:37:52 437.475
M-CUBED/EXP-1 PRIME 24 Aug 22:31:15 22:35:53 81° 72° (ENE) 22:40:38 437.505
ANTELSAT 24 Aug 22:45:01 22:49:08 42° 98° (E) 22:53:11 437.575/2403.000
VELOX 1 24 Aug 22:45:19 22:48:36 21° 65° (ENE) 22:51:53 145.980
O/OREOS (USA 219) 24 Aug 22:49:37 22:50:48 11° 48° (NE) 22:51:59 437.305
Cosmos 2499 24 Aug 22:53:52 23:00:01 30° 70° (ENE) 23:06:07 435.465 / 435.565
CUBEBUG 1 24 Aug 22:55:40 22:59:30 30° 68° (ENE) 23:03:22 437.445
AIST 2 24 Aug 22:57:24 23:01:02 29° 246° (WSW) 23:04:41 435.215
ESTCUBE 1 24 Aug 23:10:16 23:14:42 66° 74° (ENE) 23:19:09 437.505/2401.250
DX 1 24 Aug 23:13:38 23:17:20 27° 67° (ENE) 23:21:02 434.975-435.025
TIGRISAT 24 Aug 23:16:50 23:21:11 88° 278° (W) 23:25:26 435.000
CUSAT 1 24 Aug 23:16:53 23:18:33 15° 87° (E) 23:20:24 437.405
GONETS M04 24 Aug 23:20:06 23:28:56 64° 78° (ENE) 23:37:41
QB50P1 24 Aug 23:23:58 23:26:41 17° 92° (E) 23:29:24 145.935-145.965
HUMSAT D 24 Aug 23:26:39 23:28:53 14° 269° (W) 23:31:07 437.325/437.525
SPROUT 24 Aug 23:29:14 23:32:54 28° 69° (ENE) 23:36:37 437.525
AISAT 24 Aug 23:32:33 23:36:57 66° 74° (ENE) 23:41:24 437.250
POPSAT HIP 1 24 Aug 23:33:17 23:36:28 20° 94° (E) 23:39:37 437.405
UNISAT 6 24 Aug 23:44:34 23:48:39 41° 289° (WNW) 23:52:38 437.425
50 SAT 24 Aug 23:54:05 23:57:38 69° 258° (WSW) 00:01:14 437.505
UKube-1 24 Aug 23:59:51 00:04:07 66° 74° (ENE) 00:08:26 .
TISAT 1 25 Aug 00:01:54 00:04:21 15° 63° (ENE) 00:06:49 437.305
QB50P2 25 Aug 00:02:08 00:06:14 46° 99° (E) 00:10:17 145.880/145.840
DUCHIFAT 1 25 Aug 00:04:26 00:08:24 40° 98° (E) 00:12:21 145.980
POLYITAN 1 25 Aug 00:04:40 00:08:46 47° 99° (E) 00:12:48 437.675
AUBIESAT-1 25 Aug 00:05:28 00:08:03 15° 265° (W) 00:10:41 437.475
M-CUBED/EXP-1 PRIME 25 Aug 00:09:18 00:10:54 12° 267° (W) 00:12:32 437.505
NANOSAT C BR1 25 Aug 00:16:26 00:20:37 60° 101° (E) 00:24:45 145.865
VELOX 1 25 Aug 00:20:37 00:24:47 40° 262° (W) 00:29:00 145.980
ANTELSAT 25 Aug 00:22:36 00:25:31 18° 296° (WNW) 00:28:24 437.575/2403.000
SO-50 25 Aug 00:23:11 00:27:56 55° 119° (ESE) 00:32:38 436.795
O/OREOS (USA 219) 25 Aug 00:26:22 00:31:00 81° 68° (ENE) 00:35:35 437.305
JAS-2 25 Aug 00:26:34 00:32:55 44° 99° (E) 00:39:55 435.910
CUBEBUG 1 25 Aug 00:32:06 00:35:45 26° 265° (W) 00:39:28 437.445
Cosmos 2499 25 Aug 00:46:38 00:53:20 47° 270° (W) 01:00:02 435.465 / 435.565
DX 1 25 Aug 00:49:41 00:53:26 28° 264° (W) 00:57:14 434.975-435.025
ESTCUBE 1 25 Aug 00:50:11 00:51:57 12° 271° (W) 00:53:43 437.505/2401.250
CUSAT 1 25 Aug 00:58:28 01:00:24 16° 293° (WNW) 01:02:36 437.405
QB50P1 25 Aug 00:58:40 01:02:41 42° 288° (WNW) 01:06:39 145.935-145.965
SPROUT 25 Aug 01:05:10 01:08:49 26° 265° (W) 01:12:28 437.525
POPSAT HIP 1 25 Aug 01:08:30 01:12:20 34° 290° (WNW) 01:16:08 437.405
SWISSCUBE 25 Aug 01:10:50 01:14:15 20° 64° (ENE) 01:17:41 437.505
RS-15 25 Aug 01:11:07 01:21:37 44° 108° (ESE) 01:32:34 29.354- 29.394
AISAT 25 Aug 01:12:07 01:13:52 12° 270° (W) 01:15:37 437.250
BUGSAT 1 25 Aug 01:13:20 01:17:30 78° 285° (WNW) 01:21:36 437.445
GONETS M04 25 Aug 01:17:54 01:25:03 29° 278° (W) 01:32:12
Oscar 19 25 Aug 01:21:55 01:26:04 24° 94° (E) 01:30:12 437.125/150
DANDE 25 Aug 01:23:53 01:26:06 25° 286° (WNW) 01:28:23 436.750
BEESAT 25 Aug 01:27:45 01:31:40 26° 66° (ENE) 01:35:36 436.000
TISAT 1 25 Aug 01:35:25 01:39:34 53° 260° (W) 01:43:45 437.305
QB50P2 25 Aug 01:38:59 01:41:40 17° 296° (WNW) 01:44:19 145.880/145.840
UKube-1 25 Aug 01:39:15 01:40:37 11° 270° (W) 01:41:58 .
DUCHIFAT 1 25 Aug 01:40:54 01:43:49 18° 295° (WNW) 01:46:41 145.980
POLYITAN 1 25 Aug 01:41:33 01:44:11 16° 296° (WNW) 01:46:48 437.675
NANOSAT C BR1 25 Aug 01:53:50 01:55:50 13° 298° (WNW) 01:57:50 145.865
SO-50 25 Aug 02:04:47 02:08:43 24° 317° (NW) 02:12:37 436.795
Gurwin Techsat 1B 25 Aug 02:06:01 02:10:35 28° 95° (E) 02:15:07 435.225
O/OREOS (USA 219) 25 Aug 02:09:29 02:09:40 10° 264° (W) 02:09:52 437.305
JAS-2 25 Aug 02:11:54 02:17:50 37° 293° (WNW) 02:24:22 435.910
ITUPSAT 1 25 Aug 02:12:01 02:16:45 69° 73° (ENE) 02:21:30 437.325
MOZHAYETS 4 25 Aug 02:13:12 02:14:02 10° 59° (ENE) 02:14:51
KKS-1 25 Aug 02:29:33 02:31:32 13° 61° (ENE) 02:33:31 437.445
ITAMSAT 1 25 Aug 02:30:12 02:32:46 14° 90° (E) 02:35:20 435.822/435.867
PHONESAT 2.4 25 Aug 02:33:39 02:34:44 11° 150° (SSE) 02:35:50 2401.200-2431.200
SWISSCUBE 25 Aug 02:47:08 02:51:43 47° 260° (W) 02:56:19 437.505
Oscar 19 25 Aug 03:00:38 03:05:34 44° 290° (WNW) 03:10:28 437.125/150
BEESAT 25 Aug 03:04:57 03:09:18 35° 263° (W) 03:13:40 436.000
STARS 25 Aug 03:13:07 03:16:04 18° 64° (ENE) 03:19:02 437.465
RS-15 25 Aug 03:22:08 03:33:37 62° 312° (NW) 03:45:46 29.354- 29.394
Gurwin Techsat 1B 25 Aug 03:45:42 03:50:35 38° 292° (WNW) 03:55:27 435.225
MOZHAYETS 4 25 Aug 03:45:54 03:50:28 89° 237° (WSW) 03:55:04
ITUPSAT 1 25 Aug 03:52:53 03:55:04 13° 270° (W) 03:57:14 437.325
KKS-1 25 Aug 04:03:02 04:07:30 72° 257° (WSW) 04:12:01 437.445
ITAMSAT 1 25 Aug 04:07:36 04:12:46 74° 286° (WNW) 04:17:55 435.822/435.867
PHONESAT 2.4 25 Aug 04:07:47 04:10:36 37° 165° (SSE) 04:13:25 2401.200-2431.200
AO-7 25 Aug 04:08:28 04:16:31 50° 101° (ESE) 04:24:28 29.400- 29.500
STARS 25 Aug 04:47:46 04:52:03 48° 260° (W) 04:56:22 437.465
Cosmos 2491 25 Aug 04:55:15 05:03:26 40° 72° (ENE) 05:11:35 435.465 / 435.565
CUBESAT XI-V 25 Aug 04:57:26 05:01:59 65° 74° (ENE) 05:06:35 437.345
HORYU 2 25 Aug 05:16:15 05:20:09 30° 97° (E) 05:24:01 437.375
RS-15 25 Aug 05:39:29 05:49:20 28° 342° (NNW) 05:59:30 29.354- 29.394
PHONESAT 2.4 25 Aug 05:43:49 05:46:47 59° 182° (S) 05:49:45 2401.200-2431.200
ITAMSAT 1 25 Aug 05:50:30 05:51:19 10° 304° (NW) 05:52:09 435.822/435.867
GOMX 1 25 Aug 05:52:42 05:56:02 16° 88° (E) 05:59:18 467.674
BRITE-PL 25 Aug 05:59:25 06:04:49 41° 96° (E) 06:10:06 437.365/2234.400
AO-85 25 Aug 06:01:02 06:06:12 53° 118° (ESE) 06:11:07 145.980
AO-7 25 Aug 06:01:33 06:09:04 40° 301° (WNW) 06:16:34 29.400- 29.500
YUBILEINY 25 Aug 06:11:02 06:19:19 47° 88° (E) 06:27:36 435.215
Cubesat XI-IV 25 Aug 06:13:11 06:17:20 23° 93° (E) 06:21:29 437.490
DOVE 4 25 Aug 06:16:28 06:17:46 11° 86° (E) 06:19:04 437.250
CUTE-I 25 Aug 06:25:42 06:30:21 30° 96° (E) 06:34:57 437.470
Cosmos 2504 25 Aug 06:26:48 06:32:28 20° 80° (E) 06:37:54 435.465 / 435.565
NOAA 15 25 Aug 06:36:40 06:41:49 48° 100° (E) 06:46:56 137.62
CUBESAT XI-V 25 Aug 06:37:44 06:39:49 13° 271° (W) 06:41:54 437.345
NOAA 18 25 Aug 06:39:58 06:44:59 35° 98° (E) 06:49:57 137.9125
STRAND 1 25 Aug 06:41:19 06:46:10 46° 70° (ENE) 06:51:02 437.568
Cosmos 2491 25 Aug 06:52:05 07:00:22 47° 272° (W) 07:08:39 435.465 / 435.565
HORYU 2 25 Aug 06:52:54 06:56:36 26° 293° (WNW) 07:00:16 437.375
LilacSat-2 25 Aug 07:12:23 07:16:10 81° 284° (WNW) 07:19:55 437.200
SO-50 25 Aug 07:15:38 07:17:12 11° 31° (NNE) 07:18:45 436.795
CINEMA 3 25 Aug 07:18:52 07:20:21 11° 87° (E) 07:21:49 145.822/145.860
PHONESAT 2.4 25 Aug 07:20:13 07:22:56 31° 198° (SSW) 07:25:38 2401.200-2431.200
HO-68 25 Aug 07:27:34 07:32:22 19° 90° (E) 07:37:08 435.675
GOMX 1 25 Aug 07:29:10 07:34:37 68° 286° (WNW) 07:39:50 467.674
PRISM 25 Aug 07:37:05 07:39:47 17° 64° (ENE) 07:42:29 437.425
BRITE-PL 25 Aug 07:38:09 07:43:04 31° 293° (WNW) 07:47:57 437.365/2234.400
AO-85 25 Aug 07:42:32 07:46:56 26° 315° (NW) 07:51:07 145.980
DOVE 4 25 Aug 07:51:01 07:56:12 86° 284° (WNW) 08:01:04 437.250
Cubesat XI-IV 25 Aug 07:52:33 07:57:38 47° 291° (WNW) 08:02:41 437.490
RS-15 25 Aug 07:57:08 08:07:16 28° 18° (NNE) 08:17:26 29.354- 29.394
CUTE-I 25 Aug 08:05:36 08:10:24 36° 293° (WNW) 08:15:12 437.470
YUBILEINY 25 Aug 08:08:02 08:16:12 40° 288° (WNW) 08:24:25 435.215
Cosmos 2504 25 Aug 08:16:22 08:24:57 82° 278° (W) 08:32:58 435.465 / 435.565
NOAA 15 25 Aug 08:17:07 08:21:16 24° 297° (WNW) 08:25:24 137.62
NOAA 18 25 Aug 08:20:44 08:25:33 32° 295° (WNW) 08:30:20 137.9125
STRAND 1 25 Aug 08:21:38 08:25:32 22° 267° (W) 08:29:29 437.568
SEEDS 25 Aug 08:36:04 08:40:03 41° 98° (E) 08:44:01 437.485
TIGRISAT 25 Aug 08:43:58 08:44:06 10° 60° (ENE) 08:44:15 435.000
CANX-2 25 Aug 08:51:24 08:55:38 80° 286° (WNW) 08:59:52 2200.000
CINEMA 3 25 Aug 08:53:27 08:58:04 69° 285° (WNW) 09:02:26 145.822/145.860
SO-50 25 Aug 08:54:10 08:58:44 56° 52° (NE) 09:03:09 436.795
CUTE 1.7 + AOD 2 25 Aug 08:58:07 09:02:21 77° 284° (WNW) 09:06:35 437.475
UNISAT 6 25 Aug 09:08:10 09:11:26 19° 65° (ENE) 09:14:40 437.425
GOMX 1 25 Aug 09:10:50 09:11:36 10° 304° (NW) 09:12:22 467.674
PRISM 25 Aug 09:10:54 09:14:46 41° 261° (W) 09:18:40 437.425
